Weather History for KORL - May, 2014

Change the Weather History Date:

Friday, May 16, 2014

  Actual Average Record
Temperature  
Mean Temperature 72 °F -  
Max Temperature 81 °F 86 °F 91 °F (1998)
Min Temperature 62 °F 66 °F 62 °F (2014)
Cooling Degree Days 6    
Growing Degree Days 22 (Base 50)    
Moisture  
Dew Point 54 °F    
Average Humidity 59    
Maximum Humidity 93    
Minimum Humidity 24    
Precipitation  
Precipitation 0.00 in - - ()
Sea Level Pressure  
Sea Level Pressure 30.06 in    
Wind  
Wind Speed 10 mph (NNW)    
Max Wind Speed 16 mph    
Max Gust Speed 21 mph    
Visibility 10 miles    
Events Rain    
Averages and records for this station are not official NWS values.
T = Trace of Precipitation, MM = Missing Value Source: NWS Daily Summary

Daily Weather History Graph

Daily Weather History Graph

Search for Another Location

Airport or City:

Trip Planner

Search our weather history database for the weather conditions in past years. The results will help you decide how hot, cold, wet, or windy it might be!

Date:

Astronomy

May. 16, 2014 Rise Set
Actual Time 6:34 AM EDT 8:09 PM EDT
Civil Twilight 6:08 AM EDT 8:35 PM EDT
Nautical Twilight 5:37 AM EDT 9:06 PM EDT
Astronomical Twilight 5:05 AM EDT 9:38 PM EDT
Moon 10:15 PM EDT (5/16) 8:14 AM EDT (5/16)
Length of Visible Light 14h 27m
Length of Day
13h 35m
Waning Gibbous, 95% of the Moon is Illuminated
May 16
Waning Gibbous
May 21
Last Quarter
May 28
New
Jun 5
First Quarter
Jun 13
Full

Hourly Weather History & Observations

Time (EDT) Temp. Dew Point Humidity Pressure Visibility Wind Dir Wind Speed Gust Speed Precip Events Conditions
12:53 AM 73.0 °F 69.1 °F 87% 29.98 in 10.0 mi WNW 10.4 mph - N/A   Overcast
1:53 AM 73.0 °F 69.1 °F 87% 29.97 in 10.0 mi West 11.5 mph - N/A   Overcast
2:28 AM 73.0 °F 69.1 °F 87% 29.97 in 10.0 mi WNW 11.5 mph - N/A   Overcast
2:53 AM 71.1 °F 66.9 °F 87% 29.98 in 9.0 mi NNW 11.5 mph - 0.00 in Rain Light Rain
3:17 AM 69.1 °F 66.9 °F 93% 29.97 in 7.0 mi North 10.4 mph - 0.00 in   Overcast
4:53 AM 69.1 °F 63.0 °F 81% 30.01 in 10.0 mi NW 11.5 mph - N/A   Overcast
5:12 AM 68.0 °F 63.0 °F 84% 30.00 in 10.0 mi NNW 13.8 mph - N/A   Overcast
5:53 AM 66.0 °F 57.9 °F 75% 30.03 in 10.0 mi NNW 10.4 mph 19.6 mph N/A   Overcast
6:33 AM 64.0 °F 55.9 °F 75% 30.03 in 10.0 mi NNW 9.2 mph - N/A   Scattered Clouds
6:53 AM 64.0 °F 55.9 °F 75% 30.05 in 10.0 mi NNW 8.1 mph - N/A   Clear
7:53 AM 62.1 °F 52.0 °F 70% 30.08 in 10.0 mi NNW 12.7 mph - N/A   Clear
8:53 AM 63.0 °F 51.1 °F 65% 30.10 in 10.0 mi NNW 16.1 mph - N/A   Clear
9:53 AM 66.0 °F 50.0 °F 56% 30.11 in 10.0 mi NNW 12.7 mph 20.7 mph N/A   Clear
10:53 AM 68.0 °F 48.0 °F 49% 30.11 in 10.0 mi NNW 11.5 mph - N/A   Clear
11:53 AM 72.0 °F 46.9 °F 41% 30.10 in 10.0 mi North 6.9 mph - N/A   Clear
12:53 PM 73.9 °F 44.1 °F 34% 30.10 in 10.0 mi North 8.1 mph - N/A   Clear
1:53 PM 77.0 °F 44.1 °F 31% 30.10 in 10.0 mi NNW 9.2 mph - N/A   Clear
2:53 PM 79.0 °F 43.0 °F 28% 30.08 in 10.0 mi North 12.7 mph - N/A   Clear
4:53 PM 80.1 °F 43.0 °F 27% 30.05 in 10.0 mi North 9.2 mph - N/A   Clear
5:53 PM 81.0 °F 44.1 °F 27% 30.06 in 10.0 mi North 9.2 mph - N/A   Clear
6:53 PM 80.1 °F 39.9 °F 24% 30.06 in 10.0 mi NNW 9.2 mph - N/A   Clear
7:53 PM 78.1 °F 42.1 °F 28% 30.08 in 10.0 mi North 6.9 mph - N/A   Clear
8:53 PM 75.0 °F 45.0 °F 34% 30.10 in 10.0 mi North 4.6 mph - N/A   Clear
9:53 PM 68.0 °F 55.0 °F 63% 30.12 in 10.0 mi East 5.8 mph - N/A   Clear
11:53 PM 66.9 °F 55.0 °F 66% 30.15 in 10.0 mi Calm Calm - N/A   Clear